Location: Bas-Clignon
(44.2000°N, 6.6333°E)
Time: 20:23:23
(UTC+00:00)

SKYMED 3 - Pass Details

Date: 03 February 2023
Orbit: 576 x 599 km, 97.9° (Epoch: 23 March)

Event Time Altitude Azimuth Distance (km) Brightness Sun altitude
Rises 18:02:26 0° 12° (NNE) 2,807 7.7 -14.0°
Reaches altitude 10° 18:04:36 10° 11° (N) 1,906 6.9 -14.4°
Maximum altitude 18:08:43 82° 285° (WNW) 595 4.5 -15.2°
Drops below altitude 10° 18:12:51 10° 197° (SSW) 1,904 7.4 -15.9°
Sets 18:15:00 0° 197° (SSW) 2,804 8.3 -16.3°
